sat.trackr.live / text

‹ back to catalog

STARLINK-5744

NORAD 55601 · 2023-020AJ

PAYLOAD ACTIVE UNKNOWN

§ Identity

Operator
Country
US
Launch date
2023-02-12
Launch site
AFETR
Launch vehicle
Mass (kg)
RCS (m²)

Purposes: comms

External: N2YO · Heavens-Above · Gunter

§ Orbital elements

Epoch: 2026-05-25T02:25:16.260096Z

Period
94.27 min
Inclination
43.0027°
Eccentricity
0.0001315
Mean motion
15.27577452 rev/d
Perigee alt
482.2 km
Apogee alt
484.0 km
Semi-major
6,861.2 km
B*
1.6237e-5
RAAN
294.1132°
Arg perigee
268.9976°
Mean anomaly
91.0725°
Rev number
18,059

§ Raw data

STARLINK-57441 55601U 23020AJ  26145.10088264  .00000185  00000+0  16237-4 0  99972 55601  43.0027 294.1132 0001315 268.9976  91.0725 15.27577452180596

JSON: /api/v1/satellites/55601 · /tle

For live sub-satellite position, see the globe view (requires WebGL).

§ Visibility from observer

Set your observer location to see the next 7 days of passes ≥ 10°. The values pass through the URL so the page stays shareable.

No JS? Fill the form by hand. The geolocation button needs JavaScript.